[Iaude] MPEC N13: 2024 JE52 [a=2.18,e=0.43,i=11.4,H=21.5]
    mpec at cfa.harvard.edu 
    mpec at cfa.harvard.edu
       
    Tue Jul  2 07:50:22 EDT 2024
    
    
  
M.P.E.C. 2024-N13                                  Issued 2024 July 2, 11:47 UT
     The Minor Planet Electronic Circulars contain information on unusual
         minor planets, routine data on comets and natural satellites,
         and occasional editorial announcements.  They are published
    on behalf of Division F of the International Astronomical Union by the
          Minor Planet Center, Smithsonian Astrophysical Observatory,
                          Cambridge, MA 02138, U.S.A.
			  
             Prepared using the Tamkin Foundation Computer Network
                              MPC at CFA.HARVARD.EDU
            URL https://www.minorplanetcenter.net/    ISSN 1523-6714
                                   2024 JE52                                    
Observations:
     K24J52E* C2024 05 02.32232212 42 40.076-27 18 28.90         20.98wXEN013F51
     K24J52E  C2024 05 02.33334812 42 39.859-27 18 14.95         20.98wXEN013F51
     K24J52E  C2024 05 02.34440312 42 39.640-27 18 00.68         20.88wXEN013F51
     K24J52E  C2024 05 09.28190612 42 47.821-24 36 56.22         21.02wXEN013F51
     K24J52E  C2024 05 09.29361112 42 47.864-24 36 38.83         20.96wXEN013F51
     K24J52E  C2024 05 09.30531912 42 47.914-24 36 21.53         21.02wXEN013F51
     K24J52E  C2024 05 09.31701012 42 47.964-24 36 04.21         21.17wXEN013F51
     K24J52E  C2024 06 05.22176013 13 05.812-12 44 41.71         21.45GVEN013V00
     K24J52E  C2024 06 05.22737913 13 06.463-12 44 32.89               VEN013V00
     K24J52E  C2024 06 05.23298213 13 07.082-12 44 24.68         21.10GVEN013V00
     K24J52E  C2024 06 05.23858713 13 07.716-12 44 15.97         21.03GVEN013V00
     K24J52E  C2024 07 01.28976714 22 43.891-04 08 29.25         22.12wXEN013F51
     K24J52E  C2024 07 01.30248114 22 46.228-04 08 18.79         21.78wXEN013F51
     K24J52E  C2024 07 01.31516414 22 48.526-04 08 08.27         21.49wXEN013F51
     K24J52E  C2024 07 01.39690814 23 03.526-04 07 00.44         21.44GVEN013F52
     K24J52E  C2024 07 01.39756114 23 03.656-04 07 00.07         21.45GVEN013F52
     K24J52E |C2024 07 01.98394014 24 57.240-03 58 43.50         22.0 GVEN013807
     K24J52E |C2024 07 01.99495014 24 59.270-03 58 35.40         22.1 GVEN013807
     K24J52E |C2024 07 02.00595814 25 01.270-03 58 26.60         22.1 GVEN013807
     K24J52E KC2024 07 02.11002814 25 20.81 -03 57 27.8          21.4 GVEN013H21
     K24J52E KC2024 07 02.11291814 25 21.33 -03 57 25.5          21.4 GVEN013H21
     K24J52E KC2024 07 02.11580814 25 21.86 -03 57 23.2          21.5 GVEN013H21
     K24J52E KC2024 07 02.11869714 25 22.38 -03 57 20.8          21.7 GVEN013H21
Observer details:
807 Cerro Tololo Observatory, La Serena.  Observers T. Linder, R. Holmes.
    0.61-m f/6.8 Ritchey-Chretien + CCD.
F51 Pan-STARRS 1, Haleakala.  Observers J. Herman, T. Lowe, P. Minguez, A.
    Schultz, I. Smith.  Measurers K. Chambers, T. de Boer, J. Fairlamb, H.
    Gao, M. Huber, C.-C. Lin, E. Magnier, Y. Ramanjooloo, R. Wainscoat, R.
    Weryk.  1.8-m Ritchey-Chretien + CCD.
F52 Pan-STARRS 2, Haleakala.  Observers J. Herman, T. Lowe, P. Minguez, A.
    Schultz, I. Smith.  Measurers K. Chambers, T. de Boer, J. Fairlamb, H.
    Gao, M. Huber, C.-C. Lin, E. Magnier, Y. Ramanjooloo, R. Wainscoat, R.
    Weryk.  1.8-m Ritchey-Chretien + CCD.
H21 Astronomical Research Observatory, Westfield.  Observer R. Holmes.
    Measurers T. Linder, R. Holmes, L. Horn.  1.3-m f/4.0 astrograph + CCD.
V00 Kitt Peak-Bok.  Observer R. A. Mastaler.  Measurers M. J. Brucker, C. E.
    Woodward, T. Beuden, V. F. Carvajal, D. Fay, J. B. Fazekas, D. C. Fuls, A.
    R. Gibbs, H. Groeller, J. K. Hogan, R. A. Kowalski, S. M. Larson, C.
    Lejoly, G. J. Leonard, R. A. Mastaler, R. S. McMillan, D. Rankin, R. L.
    Seaman, F. C. Shelly, K. W. Wierzchos.  2.25-m reflector + 4x4K mosaic
    CCD.
Orbital elements:
2024 JE52                                                Earth MOID = 0.2227 AU
Epoch 2024 Mar. 31.0 TT = JDT 2460400.5                 Veres                   
M 330.87733              (2000.0)            P               Q                  
n   0.30725667     Peri.   17.51524     -0.08167282     +0.97970140             
a   2.1750463      Node   248.11551     -0.93641101     -0.13832565             
e   0.4337733      Incl.   11.37838     -0.34126818     +0.14509027             
P   3.21           H   21.50          G   0.15           U   4                  
Residuals in seconds of arc
240502 F51  0.0   0.0     240605 V00  0.2+  0.1+    240701 807  0.3+  0.3+
240502 F51  0.0   0.2-    240605 V00  0.0   0.1-    240701 807  0.4+  0.5-
240502 F51  0.0   0.1-    240605 V00  0.0   0.1+    240702 807  0.1+  0.5-
240509 F51  0.0   0.1-    240701 F51  0.1-  0.1+    240702 H21  0.1-  0.1-
240509 F51  0.1-  0.1+    240701 F51  0.2+  0.1+    240702 H21  0.3-  0.1-
240509 F51  0.0   0.1+    240701 F51  0.0   0.1+    240702 H21  0.4-  0.1-
240509 F51  0.1+  0.2+    240701 F52  0.2-  0.0     240702 H21  0.6-  0.1-
240605 V00  0.1-  0.2-    240701 F52  0.1-  0.1-
Ephemeris:
2024 JE52                a,e,i = 2.18, 0.43, 11                  q = 1.2316
Date    TT    R. A. (2000) Decl.     Delta      r    Elong.  Phase     V
2024 06 02    13 06 57.1 -14 06 37   0.3620  1.2731   128.9    38.3    21.4
...
2024 06 17    13 40 44.2 -08 14 24   0.3684  1.2434   120.3    44.8    21.5
...
2024 06 25    14 03 20.4 -05 44 41   0.3784  1.2348   116.9    47.2    21.6
...
2024 07 01    14 21 48.9 -04 12 21   0.3888  1.2319   114.9    48.5    21.7
2024 07 02    14 24 59.9 -03 58 41   0.3908  1.2317   114.6    48.6    21.7
2024 07 03    14 28 12.5 -03 45 31   0.3929  1.2316   114.3    48.8    21.8
...
2024 07 09    14 47 57.5 -02 36 56   0.4068  1.2327   112.8    49.5    21.8
...
2024 07 17    15 15 15.0 -01 32 05   0.4296  1.2389   111.3    49.8    22.0
...
2024 08 01    16 07 24.2 -00 41 21   0.4861  1.2645   109.7    49.1    22.3
M. P. C. Staff               (C) Copyright 2024 MPC           M.P.E.C. 2024-N13
    
    
More information about the Iaude
mailing list